Spokane, WA

1:34 AM PST on February 14, 2016 (GMT -0800)
Spokane International

Weather History for KGEG - April, 2013

Change the Weather History Date:

Sunday, April 21, 2013

  Actual Average Record
Temperature  
Mean Temperature 42 °F 48 °F  
Max Temperature 49 °F 59 °F 87 °F (1906)
Min Temperature 35 °F 37 °F 21 °F (1968)
Degree Days  
Heating Degree Days 23 17  
Month to date heating degree days 414 398  
Since 1 July heating degree days 5681 5994  
Cooling Degree Days 0 0  
Month to date cooling degree days 0 0  
Year to date cooling degree days 0 0  
Moisture  
Dew Point 34 °F    
Average Humidity 73    
Maximum Humidity 85    
Minimum Humidity 60    
Precipitation  
Precipitation 0.11 in 0.04 in 0.48 in (1904)
Month to date precipitation 0.94 0.93  
Year to date precipitation 4.13 5.66  
Snow  
Snow T in 0.00 in 0.70 in (2008)
Month to date snowfall T 0.9  
Since 1 July snowfall 43.5 44.7  
Snow Depth 0.00 in    
Sea Level Pressure  
Sea Level Pressure 30.11 in    
Wind  
Wind Speed 8 mph (ESE)    
Max Wind Speed 17 mph    
Max Gust Speed 24 mph    
Visibility 10 miles    
Events Rain    
T = Trace of Precipitation, MM = Missing Value Source: NWS Daily Summary

Daily Weather History Graph

Daily Weather History Graph

Search for Another Location

Airport or City:

Trip Planner

Search our weather history database for the weather conditions in past years. The results will help you decide how hot, cold, wet, or windy it might be!

Date:

Astronomy

Apr. 21, 2013 Rise Set
Actual Time 5:49 AM PDT 7:48 PM PDT
Civil Twilight 5:16 AM PDT 8:22 PM PDT
Nautical Twilight 4:35 AM PDT 9:03 PM PDT
Astronomical Twilight 3:50 AM PDT 9:48 PM PDT
Moon 3:22 PM PDT (4/21) 3:32 AM PDT (4/21)
Length of Visible Light 15h 05m
Length of Day
13h 59m
Waxing Gibbous, 81% of the Moon is Illuminated
Apr 21
Waxing Gibbous
Apr 25
Full
May 2
Last Quarter
May 9
New
May 17
First Quarter

Hourly Weather History & Observations

Time (PDT) Temp. Windchill Dew Point Humidity Pressure Visibility Wind Dir Wind Speed Gust Speed Precip Events Conditions
12:53 AM 42.1 °F 35.2 °F 30.0 °F 62% 30.06 in 10.0 mi WSW 12.7 mph - N/A   Overcast
1:53 AM 39.9 °F 33.4 °F 30.0 °F 68% 30.06 in 10.0 mi SW 10.4 mph - N/A   Overcast
2:53 AM 37.9 °F 32.1 °F 28.9 °F 70% 30.07 in 10.0 mi WSW 8.1 mph - N/A   Overcast
3:53 AM 37.9 °F 32.7 °F 28.9 °F 70% 30.07 in 10.0 mi WSW 6.9 mph - N/A   Overcast
4:53 AM 39.0 °F 34.0 °F 30.0 °F 70% 30.08 in 10.0 mi SSW 6.9 mph - N/A   Mostly Cloudy
5:53 AM 37.0 °F 33.3 °F 30.9 °F 79% 30.09 in 10.0 mi SSW 4.6 mph - N/A   Mostly Cloudy
6:53 AM 37.0 °F 34.5 °F 32.0 °F 82% 30.10 in 10.0 mi South 3.5 mph - N/A   Mostly Cloudy
7:53 AM 39.9 °F 35.1 °F 34.0 °F 79% 30.11 in 10.0 mi SSW 6.9 mph - N/A   Mostly Cloudy
8:53 AM 41.0 °F 39.0 °F 33.1 °F 73% 30.10 in 10.0 mi South 3.5 mph - N/A   Mostly Cloudy
9:53 AM 44.1 °F 40.8 °F 33.1 °F 65% 30.09 in 10.0 mi South 5.8 mph - N/A   Mostly Cloudy
10:53 AM 46.0 °F 42.5 °F 34.0 °F 63% 30.09 in 10.0 mi West 6.9 mph - N/A   Mostly Cloudy
11:53 AM 48.0 °F - 30.9 °F 52% 30.07 in 10.0 mi WSW 3.5 mph - 0.00 in Rain Light Rain
11:59 AM 46.4 °F 41.9 °F 33.8 °F 62% 30.05 in 10.0 mi WSW 9.2 mph - 0.00 in Rain Small Hail
12:05 PM 46.4 °F 42.9 °F 35.6 °F 66% 30.05 in 9.0 mi West 6.9 mph - 0.00 in Rain Light Rain
12:53 PM 45.0 °F 40.1 °F 37.9 °F 76% 30.08 in 8.0 mi North 9.2 mph - 0.04 in Rain Light Rain
1:13 PM 44.6 °F 39.7 °F 37.4 °F 76% 30.05 in 6.0 mi NE 9.2 mph - 0.04 in Rain Rain
1:46 PM 44.6 °F 43.1 °F 37.4 °F 76% 30.06 in 8.0 mi North 3.5 mph - 0.05 in Rain Light Rain
1:53 PM 44.1 °F 40.1 °F 36.0 °F 73% 30.09 in 10.0 mi North 6.9 mph - 0.05 in Rain Light Rain
2:53 PM 43.0 °F 37.2 °F 37.9 °F 82% 30.10 in 8.0 mi NNW 10.4 mph - 0.01 in Rain Light Rain
3:53 PM 46.9 °F - 37.9 °F 71% 30.10 in 10.0 mi NNE 13.8 mph - 0.00 in   Mostly Cloudy
4:53 PM 42.8 °F 38.0 °F 35.6 °F 76% 30.12 in 10.0 mi ENE 8.1 mph - N/A   Mostly Cloudy
5:36 PM 41.0 °F 34.3 °F 37.4 °F 87% 30.09 in 5.0 mi ENE 11.5 mph - 0.01 in Rain Light Rain
5:53 PM 39.9 °F 32.9 °F 37.0 °F 89% 30.14 in 7.0 mi East 11.5 mph - 0.01 in Rain Light Rain
6:17 PM 41.0 °F 34.7 °F 37.4 °F 87% 30.10 in 10.0 mi East 10.4 mph - 0.00 in   Overcast
6:40 PM 39.2 °F 33.6 °F 35.6 °F 87% 30.10 in 10.0 mi ESE 8.1 mph - 0.00 in   Mostly Cloudy
6:53 PM 39.9 °F 33.4 °F 34.0 °F 79% 30.14 in 10.0 mi East 10.4 mph - 0.00 in   Mostly Cloudy
7:53 PM 39.0 °F 32.3 °F 34.0 °F 82% 30.16 in 10.0 mi East 10.4 mph - N/A   Mostly Cloudy
8:53 PM 37.9 °F 34.4 °F 33.1 °F 83% 30.19 in 10.0 mi East 4.6 mph - N/A   Mostly Cloudy
9:53 PM 37.0 °F 31.6 °F 30.9 °F 79% 30.23 in 10.0 mi NE 6.9 mph - N/A   Scattered Clouds
10:53 PM 37.0 °F 31.6 °F 32.0 °F 82% 30.26 in 10.0 mi ENE 6.9 mph - N/A   Mostly Cloudy
11:53 PM 37.0 °F 30.4 °F 32.0 °F 82% 30.29 in 10.0 mi NNE 9.2 mph - 0.00 in Rain Light Rain